Temp
14 14 14 14 14 14 14 14 14 14 15 15 15 16 16 16 17 17 17 17 17 17 18 18 19 19 19 19 19 19 19 19 20 19 18 17 17 19 19 18 18 18 19 20 20 21 22 23 23 24 24 24 23 22 22 23 22 22 23 21 19 18 18 19 19 18 17 17 17 17 16 16 15 16 17 17 16 15 15 15 16 16 16 16 16 16 16 16
14 14 14 14 14 14 14 14 15 15 15 16 16 16 16 17 17 17 17 17 18 18 18 18 19 19 19 19 19 20 19 19 21 20 18 18 18 18 19 18 18 18 19 19 20 21 23 24 24 24 24 23 23 23 23 22 22 22 21 19 17 17 18 19 19 18 17 17 17 17 17 17 16 16 17 15 14 15 14 14 15 15 15 15 15 15 16 15
15 15 15 15 15 15 15 15 15 15 16 16 16 17 17 17 17 17 18 18 18 18 18 19 19 19 19 19 19 20 19 20 21 20 19 19 19 18 18 18 18 18 19 18 19 20 22 23 24 25 24 23 23 22 21 21 21 21 19 17 17 18 18 19 19 18 17 17 17 16 17 17 16 17 17 15 14 14 13 13 13 13 14 14 15 15 15 15
15 15 15 15 15 15 15 16 16 16 16 17 17 17 18 18 18 18 18 18 18 19 19 19 19 19 19 19 20 20 19 20 20 19 19 19 19 18 18 18 18 18 19 18 19 20 21 23 25 24 23 21 21 21 20 19 20 20 19 17 17 18 17 18 18 18 17 17 16 16 15 15 15 16 16 16 15 13 13 13 13 13 13 14 15 15 15 15
16 16 16 16 16 16 16 16 16 17 17 17 18 18 18 18 18 18 18 19 19 19 19 19 20 20 19 19 20 19 19 19 19 19 19 19 19 19 18 18 18 19 19 19 20 21 22 24 25 24 22 21 21 20 19 20 20 18 18 18 18 17 16 17 18 18 17 17 16 16 15 15 15 15 15 15 14 13 13 14 14 13 14 15 15 15 15 14
16 16 16 16 16 16 16 17 17 17 18 18 18 18 18 18 19 19 19 19 19 20 19 19 20 20 20 20 20 20 20 19 19 19 18 19 19 19 19 19 19 20 20 20 21 22 23 24 23 22 21 20 19 19 19 19 19 17 17 18 18 17 16 17 18 17 17 16 16 15 15 15 15 14 14 14 13 14 14 14 14 15 15 16 15 15 14 14
17 17 17 17 17 17 17 17 18 18 18 18 19 19 19 19 19 19 20 20 20 20 20 20 20 20 21 20 20 20 19 18 19 18 18 19 19 19 19 20 20 20 21 21 22 23 23 23 22 21 20 19 18 18 18 18 18 17 16 17 17 17 17 17 17 17 17 16 16 16 16 16 15 14 15 14 14 15 16 16 16 16 16 16 15 15 14 14
17 17 18 18 18 18 18 18 18 19 19 19 19 19 19 19 20 20 20 20 20 21 20 20 20 20 21 20 20 20 18 18 19 18 18 19 19 19 19 20 21 21 21 22 22 23 23 22 22 21 19 18 18 18 18 17 17 16 16 16 17 17 17 17 17 17 17 16 16 16 16 15 15 15 15 14 15 15 17 17 17 16 16 16 15 15 15 14
18 18 18 18 18 19 19 19 19 19 19 19 19 20 20 20 20 20 20 20 21 21 21 21 21 21 20 20 21 20 18 18 18 18 18 19 19 19 19 20 21 21 21 21 22 23 23 22 22 21 19 19 19 18 18 17 16 16 16 16 16 16 17 17 17 17 17 17 17 16 15 16 16 16 15 15 15 16 17 17 16 16 16 16 16 15 14 14
19 19 19 19 19 19 19 19 19 20 20 20 20 20 20 20 20 20 21 21 21 21 21 21 21 21 21 21 21 19 18 19 18 18 19 19 19 19 18 19 21 21 21 20 21 22 22 21 21 21 19 19 18 18 18 17 16 17 17 17 17 17 17 17 17 17 17 17 17 16 15 15 16 16 14 15 15 16 17 17 16 16 16 16 16 15 15 14
19 20 20 20 20 20 20 20 20 20 20 21 21 21 21 21 21 21 21 22 21 21 21 22 21 21 21 21 20 18 19 19 18 19 18 18 19 18 18 19 20 21 20 19 19 20 21 20 21 20 19 18 17 17 17 17 17 17 17 16 17 17 17 17 17 17 17 17 17 16 15 15 16 15 14 15 15 16 17 16 16 16 16 16 15 15 14 14
20 20 20 20 20 20 20 20 20 21 21 21 21 21 21 21 21 21 21 22 22 21 21 22 21 21 21 20 19 19 19 19 19 19 19 19 19 18 18 18 19 20 20 19 19 19 20 20 21 20 18 18 17 16 16 17 17 17 17 16 16 17 17 17 17 17 17 16 17 17 15 15 15 14 15 15 15 16 17 16 16 16 16 16 15 14 14 14
20 20 20 20 20 20 20 20 21 21 21 21 21 21 21 21 21 21 21 22 22 22 22 22 21 22 21 19 19 20 20 20 20 20 19 20 20 19 19 19 19 19 19 19 19 19 20 21 20 19 19 18 17 17 17 18 18 17 17 16 16 16 16 17 17 17 17 17 17 16 15 14 14 14 15 15 15 16 16 16 16 16 16 15 15 14 14 14
20 20 20 20 20 20 21 21 21 21 21 21 21 22 21 21 21 21 22 22 22 22 22 22 22 22 21 19 20 21 21 20 20 20 20 20 21 20 19 19 19 19 19 19 19 20 20 20 20 19 18 18 16 17 18 17 17 17 17 17 17 16 15 17 17 17 17 17 17 16 15 15 14 15 15 15 15 16 16 16 16 15 15 15 14 15 15 14
20 20 21 20 21 21 21 21 21 21 21 21 21 21 21 22 21 21 22 22 22 22 22 22 23 23 21 20 21 21 21 21 20 20 20 20 21 21 20 20 20 20 20 20 20 20 21 21 20 18 17 17 17 17 17 17 17 18 17 17 18 17 15 17 17 17 17 17 18 16 15 15 15 15 15 15 15 16 16 16 15 15 15 14 15 15 14 14
20 20 21 21 21 21 21 21 22 22 22 21 21 21 21 22 22 22 22 22 22 22 22 22 23 23 21 20 21 21 21 21 20 21 21 21 21 21 21 21 21 21 21 21 21 21 21 21 19 18 17 17 17 18 18 18 18 18 18 17 18 17 15 16 17 17 17 17 18 17 15 16 15 15 15 15 15 16 16 15 15 15 15 15 15 15 14 13
21 21 21 21 21 21 21 21 22 22 22 23 22 21 21 21 22 22 22 23 22 22 22 21 22 23 21 21 21 21 21 21 21 21 21 21 21 22 22 22 22 22 22 22 22 22 22 21 19 19 19 17 17 18 19 18 18 18 18 17 17 16 16 16 16 16 16 16 17 17 16 16 15 15 15 15 15 16 15 15 15 14 14 15 15 14 13 13
21 21 21 21 21 21 21 22 22 23 23 23 23 22 22 22 22 22 22 23 22 22 22 21 22 21 20 20 20 20 21 21 21 21 22 22 21 22 22 23 23 23 23 22 21 21 21 20 19 18 17 16 15 16 17 17 17 18 18 17 17 17 16 16 15 15 15 16 16 17 16 16 15 15 15 15 15 15 15 15 15 14 14 14 14 14 13 12
21 21 21 21 21 22 22 23 23 23 23 23 23 23 23 22 22 21 21 21 21 21 20 20 20 20 19 20 20 20 21 21 21 21 21 21 21 22 23 23 23 22 21 20 19 20 19 18 17 16 14 14 14 14 15 16 17 18 18 18 17 17 16 16 15 15 15 15 16 16 16 16 16 15 16 16 16 15 15 15 15 14 14 14 14 13 12 12
21 21 21 22 22 22 23 23 23 24 24 23 22 22 23 23 23 21 19 19 19 19 19 19 19 20 19 20 20 20 21 22 22 20 20 20 21 22 23 23 22 21 20 19 18 19 18 15 14 14 14 14 15 15 15 17 18 18 17 17 17 16 15 16 15 15 15 14 15 16 16 16 16 16 16 16 16 15 15 15 14 14 13 13 13 13 12 12
21 21 22 22 22 22 23 23 23 24 24 24 23 22 21 21 21 21 19 18 18 19 19 19 20 20 19 19 20 20 20 21 21 20 20 20 22 22 21 22 21 20 19 19 19 18 17 14 14 15 15 15 15 15 16 17 18 18 18 17 17 17 16 16 16 15 15 14 15 16 16 16 16 16 16 16 15 15 14 14 14 13 13 13 13 12 12 11
21 21 22 22 23 22 23 23 23 23 24 25 24 21 18 17 19 19 19 20 19 19 20 20 20 20 20 20 20 20 20 20 20 20 19 20 21 20 20 20 19 18 19 19 19 18 16 15 15 16 16 16 16 17 17 17 17 18 18 18 17 17 16 16 16 15 15 14 15 16 15 15 17 17 16 16 15 15 14 15 14 13 13 13 13 12 12 11
21 21 22 22 23 22 23 23 23 23 23 24 22 19 17 18 19 18 19 21 20 19 20 20 20 20 20 20 20 20 19 18 18 19 19 19 19 19 19 20 19 18 18 18 18 16 15 16 16 16 16 16 17 16 16 16 17 17 17 18 17 16 16 16 15 15 15 14 14 14 13 14 16 17 17 16 16 15 15 15 14 13 13 13 13 12 11 11
21 21 22 22 23 23 23 23 23 23 22 22 21 18 18 19 20 19 20 22 21 20 20 19 19 19 19 19 19 19 19 18 18 19 18 18 17 18 19 18 18 18 18 17 17 16 16 16 17 17 16 16 16 15 14 15 17 16 15 16 16 15 16 16 16 15 15 15 14 14 14 15 16 16 16 16 16 15 14 15 14 13 13 13 13 12 11 11
21 21 21 22 23 23 23 23 22 22 21 20 19 19 19 19 19 19 21 23 22 20 20 19 20 19 19 19 20 19 19 19 19 19 19 17 16 18 18 18 18 17 17 17 17 16 16 17 17 17 17 17 16 15 14 14 16 16 14 13 14 14 15 15 16 15 15 15 14 14 15 16 16 16 16 16 16 15 14 14 13 12 13 13 13 12 11 10
21 21 22 22 23 23 23 22 21 21 21 18 17 19 19 19 19 19 22 23 21 21 21 21 21 20 20 20 20 19 19 19 19 19 19 17 17 17 18 18 18 17 17 17 17 16 16 16 16 17 18 18 16 15 15 14 15 17 14 12 12 13 14 15 15 15 15 16 15 15 15 15 16 16 16 16 16 15 14 13 12 12 12 12 12 12 10 10
21 21 22 22 22 23 23 22 21 21 21 18 18 19 19 19 19 19 22 22 20 21 21 21 21 21 20 20 20 19 18 19 19 19 19 18 17 17 17 18 18 17 16 16 17 17 16 16 15 16 18 18 16 15 15 14 15 17 14 12 12 13 13 14 15 15 15 16 16 16 16 15 16 16 16 16 16 15 14 12 12 12 12 12 12 11 10 10
21 21 22 22 22 22 22 21 21 20 19 19 18 18 19 19 19 20 22 20 20 22 21 20 21 21 20 20 20 19 18 18 18 19 19 18 18 18 18 17 17 17 17 17 17 16 15 15 14 15 17 17 16 15 15 14 15 16 13 12 13 13 13 14 15 15 15 16 16 16 16 16 16 16 15 15 15 14 13 12 11 11 11 12 12 11 10 10
20 21 22 21 22 22 21 21 20 19 19 19 18 18 19 19 19 22 22 20 21 22 20 20 21 20 19 19 20 19 18 19 18 18 19 19 18 19 17 16 17 18 18 18 17 16 16 15 14 14 15 16 15 15 15 15 15 15 12 12 12 12 13 14 14 15 15 16 16 16 16 15 15 16 15 15 14 13 12 11 11 11 11 11 11 10 10 9
20 21 21 21 21 21 21 21 20 19 19 18 18 18 18 19 21 22 21 20 21 21 20 20 20 19 18 19 20 19 18 19 18 18 19 19 18 18 16 15 17 17 17 17 16 16 15 14 14 14 14 15 14 15 15 15 15 14 12 13 13 13 13 14 14 15 15 16 16 16 16 15 15 15 15 14 14 13 12 11 11 11 11 11 11 10 9 9
20 20 20 21 21 20 20 19 18 19 18 18 18 18 19 21 22 21 19 20 21 20 19 19 18 17 17 18 18 17 18 19 18 18 18 18 17 16 16 15 16 18 17 17 17 16 16 15 15 15 15 14 15 16 17 16 15 14 15 16 16 16 15 15 15 15 16 16 16 15 16 15 14 15 15 14 13 12 12 11 10 10 11 11 11 10 9 9
20 20 20 20 20 20 19 18 18 18 18 18 18 18 21 22 21 20 20 20 20 18 18 17 17 17 17 17 17 16 17 18 18 18 17 18 15 14 15 13 13 17 19 19 18 18 17 16 16 16 15 15 16 17 17 17 16 16 16 16 16 17 16 16 17 17 17 17 17 16 15 15 15 16 16 14 13 12 11 11 11 11 11 11 11 10 9 9
20 20 20 19 20 19 18 18 18 18 18 18 18 20 23 22 20 19 19 20 18 17 16 15 16 17 17 18 17 15 16 17 17 18 18 18 16 14 15 13 12 15 18 18 18 18 17 16 16 16 16 16 16 16 16 17 16 16 16 16 15 15 14 15 16 17 16 17 17 17 16 15 16 16 15 14 13 13 12 11 11 11 11 11 11 10 9 9
20 20 20 20 20 19 18 18 18 18 18 18 20 23 23 21 19 18 18 18 17 16 16 15 16 17 18 18 16 15 16 17 17 17 18 18 17 15 15 14 12 13 15 17 17 17 18 18 17 16 16 16 15 14 14 14 14 14 16 16 15 15 14 14 15 15 15 15 16 16 16 16 16 16 15 14 14 13 12 12 12 12 11 11 11 10 9 9
20 20 20 20 19 19 18 18 18 18 18 18 22 23 21 20 19 18 17 16 15 16 16 15 16 18 19 18 16 15 16 17 17 17 17 16 15 15 14 13 12 11 13 16 16 16 18 19 16 14 15 16 15 13 12 12 14 15 16 16 15 15 14 14 14 14 14 14 14 16 17 18 17 15 14 14 13 13 13 12 12 12 11 11 11 10 9 9
20 20 19 19 19 18 18 18 18 18 18 21 23 20 17 17 17 16 15 14 14 14 16 16 17 19 20 19 17 16 15 16 17 17 16 15 14 14 14 12 11 11 11 14 15 15 17 18 16 15 15 14 14 14 13 13 15 16 16 15 14 13 14 14 14 15 14 14 15 17 17 17 17 15 14 14 13 14 14 13 13 12 11 11 11 10 9 9
20 19 19 18 19 19 19 19 19 18 19 21 22 18 16 15 13 12 12 12 12 12 15 19 18 17 19 19 19 18 16 16 17 18 17 16 15 14 13 12 12 11 10 11 14 14 14 17 16 16 16 14 12 13 13 13 14 15 15 15 13 13 13 13 13 14 14 14 15 17 16 15 15 15 15 14 14 15 14 13 13 12 11 11 11 10 9 9
19 19 19 19 19 19 19 19 19 19 20 20 18 16 15 14 12 10 10 10 11 12 16 19 17 16 18 19 18 17 16 17 18 18 18 17 16 13 13 12 12 11 10 10 13 13 13 16 17 16 17 14 12 13 15 14 13 14 15 15 14 14 14 14 14 14 13 13 14 15 15 15 16 15 15 15 15 15 14 13 12 11 12 12 11 9 9 9
19 20 20 19 19 19 19 20 19 20 22 20 18 16 15 13 10 9 8 9 10 13 16 18 17 17 17 17 17 16 16 17 18 18 18 17 16 13 12 12 11 11 11 10 12 13 13 16 18 16 15 14 14 15 16 16 14 14 15 15 15 15 14 14 14 14 14 13 13 14 14 15 16 16 15 15 15 14 13 12 12 11 12 12 10 9 9 8
19 21 22 20 20 20 20 20 19 19 20 18 17 15 14 12 10 8 7 8 10 13 16 17 17 17 17 15 15 15 16 17 17 18 18 17 16 14 11 10 10 10 10 10 11 13 13 15 17 16 15 15 16 15 15 16 15 15 15 15 14 14 14 14 14 14 14 13 13 13 13 15 16 16 15 15 15 14 13 12 11 11 12 12 10 9 9 8
20 23 22 20 20 20 20 20 18 17 17 16 15 14 13 12 11 9 7 7 9 12 13 15 16 17 16 16 16 15 16 17 17 17 17 16 16 15 11 8 8 9 10 12 12 12 13 14 15 16 16 17 16 13 12 14 14 14 15 14 14 14 13 13 14 14 14 13 13 13 12 14 16 16 16 16 15 14 13 12 11 11 12 11 9 9 9 8
21 23 22 20 21 21 20 19 16 16 16 15 13 12 11 11 11 11 9 8 9 11 12 14 15 16 15 16 16 15 15 17 17 17 16 15 16 15 10 6 6 7 10 13 12 10 11 12 13 16 17 16 13 11 11 12 12 13 13 14 14 13 13 13 14 13 13 13 14 13 12 14 16 16 16 15 15 14 13 12 11 12 13 11 10 9 9 8
22 23 21 20 21 21 21 20 16 14 13 11 10 10 10 11 12 12 11 10 11 12 13 14 14 15 15 14 15 15 15 16 16 16 16 16 14 11 7 5 6 7 10 13 12 9 10 13 14 16 17 14 11 11 11 11 12 13 13 13 13 13 13 13 12 11 11 12 14 13 12 15 17 17 16 16 15 14 14 13 13 13 13 11 10 9 9 8
21 20 21 20 20 21 22 21 17 14 12 11 11 11 10 10 11 12 12 12 12 12 14 15 13 14 14 13 14 15 15 16 17 15 15 16 13 6 4 5 6 8 9 10 10 9 11 15 15 16 17 16 15 14 13 12 12 14 14 13 12 12 12 11 11 10 11 12 13 13 13 15 17 17 17 17 16 15 15 14 14 13 13 11 10 9 9 8
20 20 21 21 20 20 20 19 17 15 13 13 14 13 12 12 10 10 11 11 10 11 13 14 12 12 13 13 14 14 14 15 17 15 13 15 12 5 3 4 5 8 7 5 6 7 11 15 15 15 17 16 16 17 16 15 14 15 14 12 11 11 11 11 11 11 11 13 14 13 13 15 16 17 17 16 16 15 15 14 13 13 13 11 9 9 9 8
22 22 22 22 20 18 18 17 16 16 14 15 16 15 14 14 12 9 10 11 11 10 12 13 12 12 14 14 15 16 14 14 15 14 14 15 13 8 4 4 5 6 5 3 4 6 10 13 14 15 16 16 16 17 16 16 15 14 14 13 11 10 10 11 11 11 13 14 14 14 14 14 15 15 15 15 15 15 14 14 13 13 13 11 9 9 9 8
21 20 18 20 21 19 18 17 17 17 17 18 18 15 15 15 14 12 11 11 11 10 12 13 12 14 15 15 16 17 16 14 13 14 14 13 13 9 5 5 5 4 4 4 4 6 11 14 13 14 15 16 16 16 15 15 14 14 14 14 12 10 9 10 11 13 14 13 13 15 15 14 14 15 15 15 15 15 14 14 13 13 13 10 9 9 8 8
19 17 14 15 18 19 19 17 16 16 17 17 16 15 15 16 15 15 14 11 10 11 13 15 14 15 15 15 16 17 17 16 15 15 14 13 12 11 8 7 5 4 4 6 5 7 11 13 12 13 14 14 14 13 13 13 13 13 14 13 13 11 10 10 11 12 12 12 13 15 14 13 13 14 14 14 15 15 15 14 14 13 12 10 9 9 8 8
17 16 14 13 15 14 14 14 14 16 17 16 16 15 16 17 17 16 14 13 13 12 13 17 17 15 15 14 15 17 17 17 17 16 15 14 13 13 13 11 7 4 5 7 6 6 11 13 12 12 13 13 13 14 13 13 13 14 13 13 13 12 11 10 11 11 11 11 12 12 12 12 12 13 14 14 16 16 15 14 14 13 12 10 9 8 8 7
17 17 16 16 16 13 12 13 15 17 18 17 18 17 16 17 18 16 14 15 17 15 13 16 17 15 14 14 14 16 16 16 17 16 14 14 14 13 14 14 11 7 7 8 8 7 10 14 13 12 13 14 15 15 14 14 14 14 14 13 13 13 12 11 10 10 10 11 11 11 10 11 12 14 15 15 16 15 15 14 13 12 12 10 9 8 8 7
16 15 15 18 18 15 15 16 16 18 20 19 18 17 16 17 17 16 15 14 15 16 15 15 17 15 13 14 14 15 14 12 14 13 12 13 13 12 12 12 11 10 9 9 9 8 10 12 13 13 13 14 15 16 15 15 14 13 14 14 14 13 13 13 12 11 11 13 13 12 11 12 14 16 16 16 15 15 14 13 12 12 11 10 8 8 7 6
15 15 15 18 19 16 15 17 17 19 19 17 16 16 16 16 16 16 17 14 11 12 12 13 16 15 15 16 15 13 10 9 9 9 9 10 10 10 11 10 10 11 11 10 9 9 10 11 12 13 13 14 16 16 15 15 15 16 17 17 17 15 14 14 13 12 13 14 14 13 13 14 15 16 15 15 15 14 13 13 12 11 10 9 8 8 7 6
Height
827 827 827 827 827 827 827 827 827 827 827 827 827 827 826 826 826 825 825 824 824 822 822 821 820 819 818 818 817 816 815 815 815 814 813 815 815 812 811 810 808 807 806 805 804 803 801 802 802 801 801 803 804 806 805 805 804 806 812 827 842 846 846 843 842 846 853 857 858 860 861 863 866 865 863 864 866 867 867 866 865 865 864 864 864 862 861 859
829 828 828 828 828 828 828 828 828 827 827 827 827 827 827 826 826 825 825 824 824 823 822 821 820 819 818 818 817 816 815 815 815 815 816 817 815 813 811 810 809 808 806 805 805 804 802 803 802 801 802 805 807 807 809 809 808 812 821 838 850 850 847 843 843 848 852 856 856 858 858 859 863 863 863 867 871 869 870 870 867 866 865 864 863 862 861 859
830 830 829 829 829 829 829 828 828 828 828 828 827 827 827 826 826 825 825 824 823 823 822 821 820 819 818 817 816 816 816 815 816 817 817 816 815 813 811 810 809 808 807 806 806 806 805 803 802 802 805 809 811 811 814 815 815 819 830 848 854 850 848 845 846 850 853 856 858 860 860 861 862 862 863 867 870 871 872 873 870 869 866 864 863 861 860 859
831 831 830 830 830 829 829 829 829 829 828 828 828 827 827 826 826 825 825 824 823 823 822 821 820 819 818 816 815 816 816 816 820 821 818 816 814 812 811 810 808 808 807 807 807 807 805 804 802 804 809 815 816 816 822 823 822 827 835 848 852 849 852 852 850 853 855 857 860 863 864 866 866 863 864 866 870 873 873 872 871 870 867 864 862 860 859 859
832 832 831 831 831 830 830 829 829 829 828 828 828 827 827 826 826 826 825 824 824 823 822 821 820 819 818 816 816 815 815 823 826 822 820 817 815 813 811 810 809 808 808 807 808 807 806 804 804 806 812 818 820 822 829 827 827 836 841 845 849 850 856 856 853 855 856 858 862 864 867 868 867 867 869 869 873 876 873 871 870 868 866 864 862 861 860 859
833 832 832 832 831 831 830 830 829 829 829 828 828 827 827 827 826 825 825 824 823 823 822 821 820 819 819 818 818 815 818 830 830 823 822 819 816 814 812 811 809 809 809 809 808 808 807 805 808 813 817 823 827 830 834 831 829 842 850 848 850 853 856 858 856 857 859 861 864 866 867 867 868 871 872 872 874 873 870 868 867 866 864 864 863 861 860 859
833 833 832 832 831 831 830 830 830 829 829 828 828 828 827 827 826 826 825 824 824 823 822 821 820 820 819 819 819 818 821 830 829 825 824 820 818 815 812 812 810 810 809 809 809 808 807 808 813 818 823 830 834 836 838 837 836 845 854 854 854 855 857 859 858 859 860 862 865 865 866 868 870 872 871 872 872 869 866 865 865 864 863 863 862 860 859 859
833 833 833 832 832 831 831 831 830 830 829 829 829 828 827 827 826 826 825 824 824 823 823 821 821 820 819 819 820 822 826 830 829 827 824 821 819 816 814 812 811 811 810 810 809 808 808 812 816 818 827 833 835 839 839 841 847 850 855 857 856 858 859 860 860 862 863 863 864 864 867 868 868 869 871 872 870 867 864 863 863 863 863 862 861 860 859 858
833 833 832 832 832 832 831 831 830 830 830 829 829 828 828 827 826 826 825 825 824 823 823 821 821 819 819 819 819 825 831 831 829 828 825 822 820 817 815 813 812 812 812 812 809 808 811 814 817 819 828 833 834 838 836 842 855 855 855 857 858 860 861 861 862 863 863 863 864 866 869 869 866 866 870 871 869 866 863 863 863 862 862 861 860 859 858 858
833 833 833 833 832 832 832 831 831 830 830 829 829 828 828 827 827 826 825 825 824 823 823 822 822 820 819 819 821 830 833 830 829 828 826 824 821 818 816 814 814 813 813 813 812 812 813 816 819 819 826 832 837 841 838 844 855 854 854 857 858 861 861 861 863 862 862 863 863 867 870 869 865 866 872 871 867 866 863 863 863 862 861 860 859 859 858 858
833 833 833 833 833 833 832 832 831 830 830 830 829 829 828 828 827 827 826 825 825 824 823 823 823 822 822 821 824 832 832 829 829 827 826 825 822 820 818 816 815 814 814 815 816 817 816 818 818 820 829 835 840 845 846 848 852 853 854 859 860 860 861 861 862 862 862 864 863 865 869 868 867 870 873 870 867 865 863 864 863 861 861 859 860 859 859 858
834 834 834 834 833 833 832 832 831 831 831 830 830 830 829 829 828 827 826 825 825 824 824 824 823 824 824 823 827 832 831 829 829 827 826 825 823 822 820 819 817 816 816 816 819 819 818 819 817 822 832 836 843 851 852 850 851 854 854 860 864 862 864 863 862 862 863 865 863 864 870 872 871 872 871 868 867 864 863 864 863 861 861 860 860 860 859 857
834 834 834 834 834 834 833 833 832 831 831 830 830 830 830 829 828 828 826 826 826 825 825 824 823 823 823 825 829 831 830 829 828 827 825 824 825 824 822 821 819 818 818 818 821 821 820 821 820 825 831 836 845 849 850 851 851 855 855 860 866 868 869 865 862 862 863 864 862 865 874 875 873 871 869 867 867 864 863 864 862 861 861 861 861 859 858 857
835 835 835 835 835 835 834 834 833 833 832 831 831 830 830 829 829 828 827 826 826 825 825 824 824 823 824 828 831 830 830 830 829 827 826 825 825 825 824 823 821 821 821 820 823 823 823 823 822 827 833 837 845 847 849 853 854 856 859 860 860 869 873 865 862 864 864 863 859 866 875 873 871 869 867 867 866 864 864 863 862 862 862 862 861 857 856 856
836 836 836 836 837 836 835 835 834 834 833 833 832 831 831 830 830 828 827 827 826 826 825 823 823 823 826 830 831 831 831 830 829 829 828 827 826 826 826 825 824 823 823 823 824 825 826 826 826 833 841 842 845 850 854 857 856 856 862 864 859 866 874 866 862 863 865 862 857 866 874 869 868 868 866 866 865 863 863 863 863 863 863 862 860 856 856 857
838 838 838 838 838 837 837 835 835 835 834 834 833 833 831 831 830 829 829 827 826 826 824 824 824 822 830 835 832 830 831 830 829 830 829 828 826 826 827 826 825 825 825 825 825 826 826 827 831 836 843 848 848 850 854 857 857 855 860 867 864 867 874 870 865 862 863 863 859 864 869 867 867 867 865 865 864 863 863 863 863 863 863 861 859 857 857 858
840 840 839 839 838 838 837 836 836 835 835 835 835 834 833 832 831 829 829 827 828 827 825 827 824 822 830 835 834 833 832 831 830 830 829 829 827 826 827 826 826 826 825 825 826 826 827 829 835 839 844 851 852 850 855 861 862 859 860 867 867 868 872 871 869 865 862 864 862 861 864 866 866 865 864 864 864 863 864 864 863 864 863 860 858 858 858 859
841 841 840 840 839 838 837 837 836 835 835 835 835 835 834 834 832 830 829 828 827 825 827 828 825 832 842 839 839 840 836 834 832 830 829 828 827 826 827 825 825 826 825 827 829 829 831 833 837 845 853 858 861 860 863 867 868 865 863 865 868 867 869 870 871 870 865 864 864 863 864 864 864 864 864 864 863 864 864 864 864 863 863 860 858 859 860 860
841 841 840 840 839 838 837 836 835 834 834 833 834 834 834 834 833 832 832 829 830 836 843 842 838 850 856 847 844 843 838 836 835 833 831 829 828 826 826 825 825 827 830 835 838 837 839 844 849 859 869 870 870 871 870 869 866 864 862 863 866 869 871 871 870 870 869 869 866 864 865 863 863 864 863 863 862 863 864 863 864 863 862 861 858 859 860 860
841 841 840 839 839 838 837 836 835 834 834 833 833 832 834 836 837 840 839 835 841 850 855 853 849 853 855 849 847 843 839 838 837 836 834 832 829 828 828 828 829 832 838 843 846 845 846 857 869 875 878 875 872 872 869 864 860 860 863 865 867 871 873 871 869 869 869 872 868 862 865 863 861 861 861 862 862 862 864 863 863 864 863 861 859 859 860 860
841 841 840 839 838 838 837 836 835 835 834 834 833 833 838 840 842 847 847 846 852 853 853 853 852 853 853 851 849 846 844 842 839 838 838 834 830 832 834 834 838 844 846 847 849 850 850 865 878 876 874 873 871 869 866 863 860 860 862 865 866 868 870 867 868 869 868 872 868 861 864 863 859 858 858 861 862 863 864 864 864 864 863 861 859 860 860 860
842 840 839 839 838 837 837 837 836 836 836 835 834 836 841 842 843 844 845 851 855 853 853 854 853 853 853 852 850 848 848 848 845 843 841 838 835 840 843 842 849 854 850 849 854 856 859 871 877 871 870 869 867 866 865 865 863 861 860 862 866 868 869 868 868 868 868 873 869 863 865 863 855 854 856 859 860 862 862 862 863 864 863 861 859 860 859 860
842 840 839 838 837 837 837 837 837 837 837 837 837 839 841 842 843 843 843 850 857 855 854 855 855 856 854 853 853 850 851 855 855 852 847 845 844 846 848 849 854 857 856 857 859 862 870 877 873 869 870 868 868 868 869 868 865 865 865 865 870 871 870 872 871 870 869 871 871 869 870 864 855 852 854 857 857 859 861 859 861 862 862 861 860 860 860 860
842 840 839 838 837 837 837 837 837 837 838 837 838 840 842 842 842 844 843 847 855 857 855 856 856 857 857 856 855 853 855 858 858 857 853 851 851 850 852 856 859 862 864 862 860 866 876 875 868 869 871 870 872 874 876 876 869 870 874 872 874 873 872 873 871 870 869 870 871 872 870 861 855 855 855 855 855 858 860 859 861 862 861 861 860 860 860 860
841 840 839 837 837 837 836 837 837 838 839 838 840 841 842 843 842 843 844 850 859 858 856 857 856 858 859 857 856 856 857 858 859 859 856 855 856 855 856 858 862 867 868 863 863 872 876 871 868 870 870 869 874 877 880 880 872 872 879 880 880 877 875 872 869 870 872 871 870 871 871 863 854 855 856 855 856 858 858 859 862 863 861 860 859 858 860 860
841 840 838 837 837 836 836 837 838 839 839 839 842 841 842 843 842 843 844 854 867 865 860 859 858 861 859 858 857 855 859 861 860 859 857 858 858 858 862 860 861 867 869 866 868 874 876 872 870 870 869 869 873 876 877 880 877 873 878 883 883 881 878 875 872 874 873 870 866 866 873 871 858 855 857 854 854 856 857 860 863 864 862 860 859 858 859 860
841 840 838 837 836 836 836 837 839 839 839 841 842 841 843 842 843 844 846 864 876 868 864 862 862 864 862 861 858 859 869 868 861 860 859 860 859 859 865 866 864 867 867 868 874 879 879 877 876 872 869 869 874 876 875 879 878 873 878 884 882 880 879 875 874 876 873 867 865 863 866 870 864 858 857 854 855 857 859 862 864 864 863 860 859 859 860 860
841 840 838 837 837 836 837 838 839 839 840 842 841 842 843 842 844 843 852 881 886 867 868 868 863 864 863 862 861 864 872 869 867 868 861 862 863 860 866 869 869 869 865 868 880 886 883 884 885 878 873 873 876 877 876 879 878 874 879 882 880 881 880 876 875 876 872 869 871 866 863 868 866 859 857 856 857 860 861 864 865 864 862 859 858 859 860 860
842 840 838 838 837 837 838 838 838 839 841 841 841 843 842 842 845 844 858 886 884 868 872 871 865 868 867 865 865 867 869 868 873 872 863 864 865 861 868 870 868 870 867 867 878 885 883 884 885 880 879 879 878 877 875 877 876 875 881 882 881 883 879 878 879 875 873 874 874 867 864 871 870 860 859 859 859 862 863 864 865 863 861 859 858 859 859 859
842 840 839 838 837 838 838 838 839 840 841 841 842 843 843 844 846 856 877 889 881 875 876 873 874 877 875 872 871 871 872 872 874 871 865 867 866 864 868 869 867 871 875 874 879 883 882 883 882 881 883 882 879 877 873 874 875 877 881 879 877 879 879 878 877 875 876 875 871 867 864 871 874 863 858 860 860 862 862 862 864 863 861 859 857 858 859 858
842 841 840 838 838 838 838 839 840 841 841 842 843 842 844 845 848 872 895 888 879 883 880 879 883 883 882 883 881 879 878 875 874 874 872 871 872 870 871 876 876 873 876 880 880 882 881 880 881 881 881 880 877 873 870 871 874 876 875 871 869 871 874 875 873 876 880 874 869 869 864 869 876 864 855 859 860 861 862 861 864 863 860 859 857 857 858 858
844 842 841 839 839 839 839 840 840 841 842 842 843 843 845 853 866 886 893 882 884 893 891 891 890 886 888 887 888 889 887 882 878 878 880 879 883 886 886 896 895 882 878 881 880 880 881 882 882 880 879 879 876 874 872 870 872 875 874 874 876 874 876 879 874 873 875 869 865 867 866 869 869 858 852 857 859 860 861 859 862 862 860 858 855 856 857 857
846 844 843 842 841 840 841 841 841 842 842 842 844 843 846 864 887 898 892 886 894 899 897 899 893 890 890 887 892 896 892 890 884 880 881 880 886 894 894 900 902 893 887 884 883 883 884 885 883 881 880 880 880 883 885 879 878 881 880 883 887 888 893 893 882 877 877 871 862 861 867 870 862 852 853 856 856 856 857 857 859 859 857 856 854 855 857 857
847 846 845 844 843 843 842 842 843 842 843 843 844 845 855 878 896 900 896 895 899 899 898 900 896 891 890 891 898 899 894 893 889 886 884 883 890 897 898 900 902 902 899 893 892 893 889 886 884 884 884 883 886 891 894 893 891 888 882 883 888 893 901 900 891 889 888 880 870 863 866 868 861 855 853 853 853 854 854 856 856 856 855 855 854 855 856 856
848 847 846 845 844 845 843 843 844 842 843 844 845 856 875 890 895 897 900 902 902 900 898 899 897 890 888 893 899 900 898 894 890 891 892 893 899 903 905 908 907 909 907 899 898 897 889 886 887 888 886 885 889 892 895 896 893 886 879 883 889 893 896 896 894 892 890 889 880 868 862 856 852 853 852 851 853 852 853 853 853 854 854 853 853 854 855 856
849 848 847 846 846 845 844 845 844 844 845 843 852 876 896 901 901 902 907 908 907 906 901 898 897 892 889 893 895 897 901 898 893 893 896 901 906 907 909 914 913 915 914 907 904 902 894 887 886 888 888 888 891 892 894 895 891 885 884 889 894 894 893 897 895 886 886 892 880 864 861 855 851 854 852 851 853 850 850 851 851 852 852 851 851 853 854 855
849 849 849 848 847 846 846 845 844 845 844 845 863 891 904 906 910 912 913 912 913 913 904 896 899 900 897 895 895 897 902 901 895 893 896 901 907 911 912 915 916 917 920 917 909 909 907 895 886 886 887 890 894 893 892 893 892 890 890 890 893 894 894 897 898 890 889 892 877 865 868 865 860 858 852 850 851 848 848 849 849 851 850 848 849 851 853 853
849 849 850 850 849 848 847 845 846 845 845 858 883 900 904 908 914 916 917 916 915 912 903 897 902 905 902 899 900 903 903 901 895 894 898 901 906 914 915 915 917 916 920 921 912 911 911 899 886 884 886 890 895 893 890 890 891 891 889 887 889 896 896 894 896 897 897 896 884 871 870 866 859 855 852 851 850 847 847 849 849 851 849 845 846 850 852 852
850 850 852 853 850 849 848 846 847 845 848 869 892 900 904 911 916 918 920 919 916 910 902 900 904 904 903 905 907 908 906 904 900 898 900 902 906 915 916 917 918 916 917 918 914 911 910 902 891 885 888 891 892 892 890 889 890 890 889 887 888 893 896 894 895 896 897 899 892 881 874 865 853 850 851 849 846 846 847 848 849 850 846 843 846 850 850 851
850 852 855 854 851 852 851 847 848 853 865 883 895 900 906 911 917 920 921 920 916 909 902 901 902 902 905 910 911 911 908 905 903 901 902 904 907 913 920 922 920 919 919 918 915 912 908 904 897 890 891 891 889 892 891 887 889 890 890 893 894 893 893 895 895 893 893 898 898 893 884 864 848 847 848 845 843 845 846 847 849 848 843 842 847 848 849 851
850 854 856 854 853 853 850 851 860 871 882 892 897 904 909 911 915 919 921 922 918 912 908 905 902 902 906 909 910 912 909 903 903 904 905 907 906 909 920 927 925 923 919 914 914 915 910 907 904 896 890 885 887 896 897 892 892 892 892 893 895 896 898 900 897 891 892 895 894 896 891 867 845 843 843 841 843 843 843 846 847 845 842 842 846 847 847 849
853 858 859 855 854 853 851 863 879 884 889 899 904 908 911 912 914 915 918 921 917 913 910 907 904 906 909 908 908 911 910 905 905 905 906 908 907 909 921 930 930 927 920 911 914 921 919 915 911 899 888 889 896 901 901 898 895 894 894 894 893 896 901 901 898 894 896 894 886 890 890 865 841 839 841 840 842 842 842 844 845 842 840 841 844 845 846 847
858 861 859 855 855 853 855 873 889 894 901 910 912 912 914 913 913 914 916 916 914 911 908 908 908 909 910 911 910 910 909 908 906 906 906 907 910 918 927 931 929 926 921 913 914 923 920 913 909 897 886 892 901 901 901 901 898 894 894 894 894 896 898 900 901 905 906 896 886 890 888 861 838 837 839 837 839 840 840 840 840 839 838 840 842 843 844 846
862 862 859 857 854 852 859 874 889 899 908 911 910 912 915 915 914 914 914 913 913 911 907 908 911 910 911 913 911 909 909 907 904 908 909 906 913 927 932 931 929 924 922 920 921 925 917 905 905 902 891 890 893 893 895 897 896 892 890 894 896 896 901 904 905 909 907 892 884 891 884 857 837 834 834 835 836 837 837 836 837 838 837 838 840 841 843 844
863 863 862 860 856 856 866 877 884 896 906 906 907 910 911 914 918 918 916 915 917 916 910 909 913 913 913 914 912 911 912 908 904 909 913 909 915 930 934 933 931 927 928 933 933 930 918 905 905 905 901 900 897 892 890 890 890 888 888 895 899 899 901 902 903 908 902 885 878 883 875 853 838 835 834 835 835 835 834 834 835 836 835 836 839 841 841 842
865 867 867 864 862 865 874 881 882 891 900 900 901 907 907 909 915 919 919 916 917 918 913 912 915 914 912 912 910 908 910 912 910 910 911 909 912 925 934 934 932 932 934 937 937 932 921 910 906 902 899 899 896 889 887 888 890 888 887 891 898 903 903 902 903 900 889 880 877 872 865 856 846 840 838 836 835 834 833 832 833 833 833 835 839 840 840 841
868 877 881 876 872 874 879 884 886 889 893 892 897 905 907 907 911 915 916 916 918 919 914 913 915 911 909 909 907 905 907 911 913 911 911 912 914 922 932 933 932 935 936 936 937 931 918 908 907 904 898 894 891 888 887 891 893 889 887 887 892 902 906 904 900 887 877 881 877 860 856 859 851 843 841 838 835 833 831 830 831 830 832 835 837 838 840 841
874 885 891 887 885 886 885 888 892 892 891 893 900 906 905 905 907 908 911 916 919 917 912 909 911 909 908 909 906 904 905 907 908 909 911 914 915 918 924 929 933 936 935 934 935 931 918 908 908 907 900 895 895 892 889 892 892 887 885 884 887 897 902 898 891 883 881 883 871 856 858 862 854 845 843 838 834 832 829 828 829 829 831 834 836 838 840 840
881 887 891 890 892 897 898 897 897 894 893 895 901 904 903 902 903 904 909 912 912 915 912 905 904 907 908 909 907 904 904 904 904 906 909 912 913 913 913 918 928 936 934 929 932 932 920 908 908 910 903 895 891 888 887 890 889 884 881 881 881 886 892 891 887 885 886 882 871 866 868 864 853 846 842 836 831 829 828 827 828 829 831 833 836 838 839 840
885 887 890 890 892 899 901 900 896 893 893 894 896 900 902 900 900 904 907 906 903 908 912 906 904 907 909 910 909 905 905 906 904 906 910 910 911 912 909 909 917 929 931 926 927 930 919 906 906 909 904 892 884 881 882 884 884 881 877 876 878 878 881 886 886 885 886 881 873 873 874 863 848 840 836 832 828 828 828 828 829 830 831 833 836 838 839 840
888 888 889 888 892 898 898 896 896 892 891 893 894 899 901 899 898 901 904 908 906 905 908 906 903 907 911 910 908 907 910 912 909 910 913 911 910 912 911 911 914 919 923 924 925 925 920 911 906 908 906 893 880 879 880 879 881 881 874 870 872 874 874 874 875 877 876 869 864 867 867 854 839 833 832 829 828 829 829 829 830 830 831 833 836 837 838 839
889 889 888 887 891 898 898 895 895 892 893 898 900 901 902 900 901 900 899 906 911 910 912 909 904 906 908 905 906 911 916 918 917 917 917 916 915 914 914 916 916 915 916 921 924 923 922 917 910 909 908 893 879 879 880 879 877 871 862 855 855 862 866 864 864 866 863 859 859 859 852 841 834 832 832 830 829 830 829 829 830 830 831 834 835 837 838 839
Wind_Speed
3 3 2 2 2 2 2 3 3 4 4 3 2 2 1 1 3 4 5 7 8 9 9 8 7 8 7 7 7 6 8 9 9 21 19 19 24 17 13 13 13 15 11 7 9 10 6 3 2 1 2 4 3 1 3 5 4 2 2 5 5 5 5 5 7 7 8 8 8 10 8 8 8 4 5 7 8 6 5 5 5 6 7 8 10 12 15 16
6 5 5 4 4 3 4 3 4 4 3 3 2 2 1 2 3 4 5 7 8 9 9 8 9 8 8 9 9 8 8 10 11 19 18 21 19 14 13 12 12 13 11 8 11 12 5 5 0 2 3 3 2 2 3 4 5 4 4 6 5 5 6 7 10 10 9 9 9 9 7 6 8 7 6 6 6 5 5 5 5 5 6 9 12 14 15 16
7 6 6 5 5 4 4 4 4 4 4 3 3 2 2 3 3 4 6 8 9 9 10 10 10 9 8 9 9 9 8 9 10 15 20 22 17 16 14 10 11 12 10 7 9 11 7 3 2 2 5 4 4 6 6 4 5 6 6 6 5 6 8 9 11 11 10 11 11 9 6 7 7 5 5 6 7 6 6 4 5 6 8 9 11 13 15 17
7 7 6 6 5 5 5 5 5 4 4 3 3 3 3 3 4 6 7 8 9 9 11 11 10 9 8 7 3 4 5 5 7 15 23 20 17 18 14 10 11 10 7 5 5 5 5 3 4 7 6 5 6 8 8 6 4 5 5 6 7 7 9 9 11 12 11 11 12 10 9 9 7 6 5 5 6 5 4 3 5 6 9 9 11 13 16 18
7 6 6 5 5 5 5 5 4 4 4 4 4 3 3 4 5 7 8 9 10 10 12 11 9 8 10 10 3 2 2 1 7 19 24 17 16 17 15 13 12 10 7 5 4 3 4 3 6 6 4 4 6 6 8 7 5 5 7 9 9 8 9 8 9 11 10 10 10 9 8 7 5 7 8 7 5 2 3 4 5 6 7 7 10 13 15 16
5 5 4 4 4 4 4 4 4 4 4 4 4 3 4 5 7 8 9 9 10 11 11 10 8 6 9 12 10 5 2 2 8 19 21 14 13 15 15 15 13 11 8 4 3 1 2 5 7 5 5 7 9 8 8 8 6 6 7 9 10 9 10 7 8 9 8 10 9 8 7 6 6 6 5 5 4 2 5 5 6 5 5 9 12 12 10 11
5 5 5 5 4 4 5 5 5 5 5 4 3 4 5 6 8 9 9 10 10 10 10 10 8 4 3 5 10 11 7 5 11 18 17 12 12 14 14 14 12 10 7 4 1 2 1 8 9 7 7 7 9 10 11 12 10 9 8 9 11 10 11 8 7 8 8 10 8 7 7 6 7 6 4 5 3 4 4 2 3 6 9 10 9 9 8 10
6 6 6 6 6 5 5 5 5 5 4 3 4 5 6 8 9 9 9 9 9 9 8 9 10 8 4 3 2 7 7 6 12 16 15 11 13 15 14 13 10 8 8 7 3 1 3 8 8 6 7 7 8 9 11 13 11 9 9 9 10 10 10 9 8 9 9 8 7 7 8 7 7 7 5 5 4 5 4 5 8 8 8 7 6 7 8 11
6 7 7 7 6 6 5 5 4 3 3 4 5 6 7 8 8 8 8 9 9 8 7 7 9 12 8 3 1 5 6 8 10 12 14 16 15 15 16 15 9 8 10 12 10 7 4 5 6 7 9 9 8 7 7 8 6 6 10 10 10 11 10 10 9 9 8 5 6 8 7 5 3 4 5 6 4 6 5 8 8 7 6 6 6 8 10 12
7 7 7 7 6 5 4 3 3 3 4 4 5 6 6 6 6 7 8 8 9 7 6 6 8 15 12 1 2 6 6 9 9 10 11 16 18 17 19 18 10 10 12 15 17 12 8 8 11 11 10 8 8 7 7 8 7 8 12 11 11 11 9 8 9 8 6 4 6 8 6 5 2 1 3 4 5 6 5 8 7 6 6 8 8 9 13 14
7 6 6 5 5 4 4 3 4 4 4 5 5 5 5 5 6 7 6 7 9 8 7 7 7 13 16 10 6 6 7 8 8 11 9 11 18 18 18 18 14 12 13 15 16 13 9 9 9 8 6 8 10 10 11 10 11 11 13 12 10 9 7 7 8 6 4 4 5 6 6 5 4 3 3 3 5 7 5 8 7 7 7 8 10 9 12 13
7 6 6 5 5 4 4 4 5 5 4 4 4 4 4 5 6 6 5 5 7 10 10 10 10 9 10 10 8 6 8 8 9 12 8 6 12 15 15 17 17 16 16 15 13 12 9 5 6 7 4 6 8 8 8 9 11 11 11 12 9 7 7 5 4 4 3 3 2 3 3 3 4 4 3 3 4 6 4 7 7 8 8 8 9 8 10 14
7 6 7 7 6 5 5 6 6 5 4 2 2 3 4 4 5 6 7 5 4 6 6 6 11 11 6 5 8 12 12 12 14 16 14 7 8 15 15 16 18 18 19 18 15 15 13 13 16 12 5 5 5 5 8 8 8 8 7 8 8 5 4 3 3 3 3 3 3 2 1 2 4 4 3 2 4 6 4 6 6 8 8 7 8 6 7 13
8 7 8 8 8 11 14 17 19 17 13 9 4 2 4 5 7 8 10 9 7 5 3 4 6 6 5 3 7 16 16 14 17 18 17 12 9 15 16 15 17 18 20 20 16 17 20 22 22 13 5 6 6 6 8 6 3 5 5 3 4 4 2 3 3 2 2 3 5 4 0 2 4 4 2 2 4 5 4 5 7 8 9 7 7 7 6 11
11 9 9 10 13 18 20 21 21 21 22 20 15 9 5 4 7 11 13 14 13 10 6 7 8 3 3 5 4 14 16 14 18 17 16 15 11 12 14 14 14 14 17 18 14 15 17 18 16 8 5 6 6 6 6 4 2 3 4 1 1 4 3 3 2 1 1 1 4 4 1 1 4 3 2 1 3 4 4 5 7 9 9 7 8 9 8 10
12 12 12 13 15 14 12 11 10 11 13 16 19 19 14 8 3 5 9 11 14 17 12 9 11 5 5 4 5 13 16 16 19 18 15 15 13 8 10 8 9 9 10 13 14 13 13 10 7 5 6 3 1 3 4 3 2 2 2 2 3 4 3 3 2 1 2 2 2 4 2 1 3 3 2 1 3 3 4 5 7 9 8 8 8 9 9 9
9 10 11 11 8 4 1 3 7 10 9 8 11 18 25 24 13 5 3 3 7 12 16 16 12 5 7 8 7 11 16 18 20 21 18 15 15 11 5 3 5 6 7 10 9 6 5 3 1 3 5 4 4 3 2 2 2 1 2 3 2 3 3 2 2 2 3 2 2 3 2 0 4 3 2 1 2 3 4 5 7 7 7 8 8 9 9 9
5 4 3 2 2 4 7 9 10 10 8 6 4 5 15 25 28 25 16 7 5 4 10 19 14 5 4 11 10 12 17 18 18 23 21 16 16 13 6 3 4 6 5 7 7 6 3 3 2 3 6 7 7 5 3 1 1 3 2 3 1 2 2 1 2 3 5 2 3 1 2 1 4 3 3 3 2 2 4 5 6 6 7 9 9 9 9 8
6 2 2 3 4 5 7 9 9 8 6 5 4 2 1 5 16 27 27 20 13 5 3 11 10 4 3 8 11 16 16 14 15 21 25 21 19 13 10 11 7 3 3 4 6 8 4 4 6 5 5 6 6 5 4 1 3 4 4 3 3 3 3 2 1 2 4 3 4 2 3 4 3 4 4 3 2 0 3 4 5 6 7 9 8 8 8 8
10 6 3 3 3 4 6 8 7 6 6 7 5 2 2 2 2 10 17 19 14 7 4 4 5 6 4 6 12 17 11 11 16 19 27 26 19 11 10 9 8 8 7 6 7 6 4 7 6 4 4 5 5 5 4 4 3 4 4 4 4 3 1 1 2 2 1 3 4 4 3 5 3 5 4 3 2 0 3 5 5 7 7 8 9 9 8 7
13 9 6 5 4 4 4 7 11 12 11 11 9 4 0 1 3 2 3 10 10 8 8 5 4 5 3 5 14 17 5 8 19 22 28 27 16 8 8 8 7 7 6 8 7 1 3 9 6 4 3 4 3 4 5 4 4 1 2 3 3 2 2 2 2 2 1 1 3 4 4 6 5 5 5 4 3 1 2 4 6 8 8 7 9 9 7 6
15 12 8 6 3 3 3 4 8 11 11 11 12 8 4 3 5 5 2 6 7 7 7 7 7 6 4 4 14 16 3 6 15 20 27 24 14 8 5 7 9 6 5 4 3 1 7 9 5 4 3 4 2 3 4 4 5 3 2 1 1 1 1 0 1 2 2 2 3 5 4 7 5 5 6 5 4 3 1 2 5 6 8 9 8 7 7 7
15 14 10 7 3 2 3 3 4 7 8 9 11 8 5 7 8 4 1 4 3 3 3 6 8 8 7 7 14 15 8 7 7 12 22 18 8 6 5 7 9 8 7 5 3 6 7 5 5 5 5 5 5 7 7 5 4 3 4 2 1 2 1 0 1 1 2 1 3 6 6 6 5 4 5 5 4 4 2 3 5 5 7 9 9 8 8 9
14 15 12 8 5 2 1 4 4 5 8 8 9 8 7 7 6 1 1 2 2 1 2 2 4 6 5 5 11 10 6 6 4 9 18 13 5 5 4 5 6 6 7 8 11 11 7 4 5 3 4 4 4 7 8 5 3 4 5 3 1 3 2 1 2 1 2 1 2 4 5 4 3 4 4 5 4 5 5 2 6 7 7 8 7 6 7 8
14 14 13 9 6 2 1 4 5 6 7 6 7 7 7 5 2 2 1 2 2 1 1 1 2 4 5 5 10 6 1 3 5 9 13 11 5 3 2 1 2 5 5 8 11 9 6 6 6 4 3 1 2 5 7 4 3 2 3 4 3 5 4 4 3 1 2 3 2 1 4 3 3 5 3 4 4 4 5 2 7 7 7 7 6 5 6 7
13 14 13 9 5 3 2 2 4 4 5 5 4 6 5 2 2 1 1 2 3 2 2 3 2 6 8 10 10 2 1 3 5 12 14 12 7 1 1 2 1 3 3 4 5 3 6 9 8 5 1 2 3 4 6 4 3 2 1 2 4 4 4 5 3 1 1 3 3 2 1 3 2 5 4 4 3 4 5 5 6 5 7 6 6 5 5 6
13 14 13 9 5 4 2 2 2 2 2 2 3 4 2 1 2 2 1 2 3 3 4 5 4 7 8 11 10 2 1 4 5 12 15 14 9 2 1 3 1 2 1 1 3 1 5 9 10 7 2 2 5 5 5 5 3 2 3 2 2 3 4 3 2 3 2 4 2 2 2 3 2 3 4 4 2 3 5 5 4 4 7 7 6 5 6 6
14 15 13 8 5 5 4 4 2 1 1 3 4 4 2 2 2 1 2 3 3 3 2 2 3 6 7 9 10 5 2 5 3 8 11 11 8 1 3 6 4 5 4 3 3 1 2 4 7 6 4 4 4 4 3 3 1 2 3 2 2 3 4 3 3 3 4 4 2 1 2 3 3 2 2 3 2 5 3 2 3 5 7 7 6 5 6 6
16 15 12 7 4 5 4 3 2 3 4 5 5 4 4 3 1 1 2 2 2 1 1 3 4 5 8 7 7 7 2 3 3 5 8 6 7 3 3 4 4 7 8 6 6 2 2 2 5 3 5 4 3 5 2 3 1 2 2 2 2 2 3 3 3 3 4 3 1 2 2 2 3 2 1 3 2 4 1 1 2 5 6 7 5 4 5 5
17 16 14 7 3 4 4 4 4 5 4 4 4 5 4 2 1 3 3 0 2 2 0 3 3 4 7 5 5 8 6 4 3 4 3 3 7 7 3 2 2 6 5 6 5 3 4 3 3 1 2 2 5 5 3 5 2 2 1 3 4 3 2 2 2 2 3 2 2 3 2 3 1 1 2 1 2 3 3 1 3 5 6 7 5 3 4 4
19 18 16 11 5 3 3 4 4 4 3 4 5 3 2 1 3 4 3 0 1 3 2 3 3 3 7 5 4 8 7 5 5 5 4 3 7 10 6 3 4 3 2 3 2 2 1 1 1 1 1 3 4 3 2 4 3 2 2 5 3 1 0 1 1 1 2 3 2 2 3 3 2 3 2 3 4 5 5 3 5 5 6 6 4 3 3 4
20 19 18 16 9 5 4 4 3 3 3 4 3 0 1 3 5 3 1 2 1 3 2 1 3 4 5 4 5 7 5 5 6 5 4 4 6 8 8 5 4 2 3 4 2 0 2 3 1 2 1 4 4 2 2 1 2 3 5 6 5 3 2 2 1 0 2 3 3 1 3 1 4 5 2 4 6 7 7 6 5 4 6 6 4 3 3 3
21 19 18 17 12 9 6 4 3 2 4 3 1 1 2 4 3 1 2 3 1 1 0 2 3 5 5 3 4 5 2 2 5 7 4 4 5 5 8 8 7 3 1 4 4 3 3 3 3 1 1 5 6 4 3 3 4 6 5 4 3 3 3 3 3 3 3 2 4 4 2 2 5 3 2 5 7 7 7 7 5 3 5 6 3 3 3 3
17 20 19 17 14 11 7 3 2 3 4 2 1 3 6 5 2 0 1 2 0 2 2 1 4 4 2 2 2 3 1 1 4 6 6 4 5 4 5 9 11 6 2 3 3 2 1 2 4 3 1 3 5 4 1 2 3 5 3 2 2 2 2 2 2 3 4 4 8 7 2 2 5 3 4 5 5 6 6 6 5 2 3 6 3 4 4 4
8 17 20 19 16 13 7 3 2 3 3 1 3 6 6 3 1 1 1 0 1 3 2 1 3 2 2 2 1 2 2 1 3 5 5 5 4 4 4 6 9 6 2 2 2 2 1 1 2 2 2 2 3 2 3 2 2 4 2 2 1 1 1 1 3 4 5 5 5 2 0 2 2 1 4 3 3 4 5 5 3 2 4 6 2 4 4 3
3 11 18 20 18 15 9 3 1 2 0 1 6 6 3 1 1 2 1 1 1 3 4 3 2 2 3 1 2 5 2 0 3 3 3 3 3 4 3 2 5 6 3 2 2 2 1 2 2 1 2 3 4 1 2 2 1 2 2 2 1 2 4 0 4 5 4 3 3 2 3 4 3 1 3 3 3 4 2 1 2 3 4 5 1 4 3 4
3 5 11 19 20 16 10 4 2 1 0 4 8 4 1 1 0 1 1 1 0 1 2 2 2 3 3 3 4 7 4 1 3 3 2 2 2 3 3 1 2 4 2 1 0 0 0 3 3 2 1 1 2 2 1 3 2 1 2 2 1 2 4 2 2 3 3 3 3 4 6 7 5 3 3 2 3 6 3 2 3 4 4 5 1 5 3 4
3 1 6 18 20 14 9 5 2 1 2 7 7 3 1 0 1 0 1 1 1 1 1 1 1 1 2 3 3 5 5 3 4 4 2 2 1 1 2 1 1 1 1 1 0 1 1 1 3 1 2 1 1 4 3 3 2 1 2 1 1 2 1 1 1 1 3 4 4 5 6 6 4 3 4 5 7 7 5 3 4 4 6 5 3 5 3 3
3 1 2 16 17 11 11 7 3 3 4 6 5 2 1 1 1 1 0 1 1 1 2 1 0 0 2 2 1 3 3 2 4 4 2 2 2 1 1 1 0 1 1 2 1 1 0 1 2 2 3 1 1 2 1 1 1 2 2 1 2 2 2 2 1 2 2 3 5 6 7 5 4 4 4 7 8 7 5 4 3 4 8 5 4 4 2 3
3 1 1 15 15 8 12 11 7 6 6 5 3 1 1 1 2 1 1 1 1 1 1 0 0 2 2 1 0 1 1 1 3 3 2 1 1 1 1 1 1 2 3 3 1 1 1 1 2 3 3 2 1 1 0 1 1 1 2 2 2 1 1 1 1 1 0 2 3 5 6 6 3 3 4 7 7 5 5 4 2 5 8 4 5 4 3 4
2 1 2 16 14 5 8 11 8 6 4 4 3 2 1 0 2 1 2 1 1 1 1 1 2 2 1 1 0 1 1 2 2 2 1 1 2 1 0 1 1 3 3 1 1 2 2 1 2 3 3 2 2 1 2 1 2 2 0 1 1 1 1 1 2 1 1 1 3 3 6 7 3 3 4 6 5 4 4 3 3 6 6 3 6 4 4 5
3 2 3 15 13 4 7 7 4 4 4 3 2 2 1 0 1 1 2 1 1 2 1 2 3 2 1 0 1 1 1 2 2 1 0 1 1 1 1 1 1 2 1 1 2 2 1 1 2 4 4 1 0 0 2 2 1 1 0 2 2 2 2 2 3 2 1 2 4 3 4 6 3 5 5 5 4 4 4 4 5 6 5 3 5 4 4 4
3 1 4 15 11 1 6 7 2 5 4 1 0 1 2 1 1 1 1 1 1 2 1 2 1 2 1 1 1 1 1 1 1 1 0 1 0 1 1 1 1 1 1 1 2 2 1 1 2 5 3 1 1 2 1 3 3 1 2 2 2 2 3 2 1 1 2 3 3 2 4 6 3 4 4 4 4 4 4 4 4 6 6 3 5 3 4 2
2 1 2 15 12 2 4 4 2 3 3 1 1 2 1 1 1 1 0 1 1 2 1 1 0 1 1 1 1 1 0 1 0 1 0 1 1 1 0 1 1 2 2 1 1 1 1 1 1 3 4 3 3 2 3 3 2 1 2 1 3 4 4 1 0 2 1 5 4 2 4 7 5 4 5 7 7 7 5 4 4 6 7 1 4 3 3 1
2 0 2 11 16 9 4 2 4 5 3 3 3 2 0 1 2 1 1 2 1 1 1 1 1 1 0 1 1 1 0 0 0 0 1 1 1 1 1 1 2 3 3 3 2 1 1 1 1 1 2 3 4 4 3 2 2 2 2 3 2 4 6 3 0 1 2 4 4 3 6 10 10 10 11 12 11 10 8 5 4 6 6 1 4 3 2 0
2 2 3 6 11 9 4 2 4 6 4 4 3 1 0 1 1 1 1 1 1 1 1 1 0 1 0 1 1 1 1 1 2 1 1 1 0 1 2 1 1 2 4 4 2 0 0 2 3 3 4 4 6 7 5 3 4 5 3 4 4 4 6 4 2 2 4 2 4 6 7 11 14 14 14 14 12 10 8 6 5 6 5 2 5 3 1 1
2 1 2 3 4 5 5 4 5 4 3 3 2 1 2 2 1 0 1 1 1 1 1 1 0 1 0 1 1 1 1 1 3 1 1 1 1 1 3 2 1 2 3 2 1 2 1 4 3 3 7 8 8 11 9 5 7 9 8 6 6 6 6 6 5 6 2 2 6 7 4 9 15 15 15 15 13 9 8 8 6 6 3 3 4 3 0 1
3 1 1 0 1 2 3 3 4 4 3 3 2 2 2 3 1 1 0 0 1 1 1 1 2 3 1 0 0 1 0 0 1 0 1 1 1 1 1 1 2 4 3 2 2 2 1 3 2 0 6 10 10 13 12 7 8 10 10 8 6 7 9 10 11 9 2 2 9 9 9 12 15 15 15 14 12 10 9 8 6 6 4 4 4 2 1 2
4 3 1 1 2 1 0 2 3 4 4 3 2 2 3 4 3 1 0 1 1 2 1 0 2 3 1 1 1 1 1 0 1 2 1 1 2 1 1 1 1 3 2 2 2 0 1 2 1 0 7 12 11 11 9 8 7 9 11 11 8 9 11 12 12 9 6 9 13 13 15 16 14 14 14 12 10 8 8 7 6 7 5 4 3 1 2 2
2 1 1 2 3 2 0 2 2 3 2 1 1 1 2 4 4 2 1 1 1 2 2 1 2 3 2 1 1 0 1 2 3 4 2 2 2 2 1 1 1 3 3 1 1 1 0 1 1 1 5 10 8 5 4 7 8 10 12 11 8 9 10 10 10 8 6 10 13 12 14 14 12 11 10 9 9 8 9 8 7 6 4 3 3 1 2 2
3 1 1 2 2 2 1 1 1 1 1 1 0 1 2 3 3 3 1 1 1 2 2 2 3 4 2 1 2 2 0 2 2 3 3 2 2 2 2 0 1 3 2 1 0 1 0 1 2 2 4 7 4 2 5 7 7 9 13 13 9 8 7 7 7 6 7 8 9 8 8 9 8 7 8 9 9 9 10 8 6 6 3 4 2 1 2 2
6 3 3 1 1 2 2 1 1 1 1 1 0 1 1 0 2 2 1 1 1 2 2 1 1 2 1 1 3 2 1 2 1 1 1 1 1 1 2 2 2 3 3 2 1 1 1 1 2 2 2 5 3 4 8 7 5 5 8 8 8 7 6 6 5 7 9 7 5 6 8 9 8 8 10 10 10 9 9 6 6 6 3 3 1 0 1 3
Wind_Direction
104 111 116 129 123 131 128 129 134 139 144 144 149 136 106 46 12 4 8 4 4 0 1 359 347 338 316 300 298 295 309 307 10 29 27 2 348 347 349 344 342 348 350 337 337 325 306 91 89 266 94 71 45 331 340 2 349 322 68 78 71 61 52 45 73 99 114 121 134 133 125 114 117 116 102 85 64 63 56 38 30 33 31 19 1 350 349 353
85 88 92 96 99 106 109 115 120 123 124 120 120 108 69 35 21 18 14 4 3 0 3 357 343 338 322 309 286 288 303 302 11 35 15 357 354 352 350 351 348 347 352 350 349 343 358 83 10 262 86 77 50 9 1 342 341 18 69 77 69 65 58 59 82 96 107 108 111 120 123 116 114 118 111 86 73 58 48 23 4 9 4 6 354 350 357 359
85 88 93 96 101 103 102 105 104 107 106 106 100 80 57 45 34 18 7 2 6 5 6 360 346 342 330 317 278 270 292 305 12 21 0 359 356 351 354 353 350 347 358 359 343 342 354 19 335 71 74 59 53 38 32 349 348 45 71 85 83 84 73 65 85 96 103 105 101 95 79 77 83 108 127 107 89 53 44 13 344 349 340 345 342 348 359 2
83 86 90 92 96 95 98 99 98 102 95 94 82 71 68 48 29 10 7 7 9 8 6 360 352 355 353 341 276 236 292 310 22 360 351 2 1 1 7 4 4 1 14 15 344 340 335 349 67 82 81 65 61 53 44 18 18 58 63 94 101 94 84 70 88 99 104 106 102 99 82 71 57 50 63 77 76 41 28 1 332 324 322 332 338 349 2 4
77 77 80 82 87 89 92 93 90 91 83 87 87 80 68 33 19 10 9 9 7 8 6 1 359 16 26 28 59 171 279 330 7 349 347 0 9 14 21 23 26 25 44 49 20 356 329 57 89 81 85 72 66 61 55 47 64 71 49 84 101 94 93 79 87 94 99 103 100 100 90 84 67 50 45 43 63 36 314 310 303 289 304 337 347 351 2 3
67 66 68 69 72 74 75 81 80 86 90 92 89 66 39 19 13 9 7 7 7 11 12 6 4 32 44 45 50 31 51 86 350 344 347 357 9 12 15 21 32 36 45 42 27 281 298 84 80 62 80 66 63 64 60 51 61 88 61 73 91 93 101 94 90 93 98 101 98 100 99 103 95 81 68 58 65 282 255 257 275 285 332 4 358 350 357 1
60 55 56 56 58 65 70 81 87 92 95 86 68 34 20 12 8 6 4 6 10 15 18 17 17 25 17 40 55 48 63 60 353 345 348 2 14 8 6 16 34 40 33 16 273 215 87 92 87 78 85 71 72 73 71 63 57 86 89 81 89 95 101 101 96 97 99 98 100 111 112 106 97 97 86 67 53 300 263 235 349 360 11 15 0 344 360 8
56 54 55 56 57 67 74 84 89 87 81 52 27 14 9 5 5 5 4 5 8 17 21 20 22 17 339 283 55 58 57 15 350 352 359 19 22 12 10 16 39 61 45 28 1 10 56 81 90 86 84 84 95 100 92 77 58 75 97 98 99 100 103 105 100 99 99 98 103 104 100 98 99 102 75 48 26 318 313 47 29 11 12 10 356 354 15 15
51 54 55 58 59 65 72 77 76 61 36 15 10 7 5 5 7 6 4 6 8 19 26 19 18 15 4 269 265 56 32 351 344 355 15 36 33 26 26 21 47 86 60 40 37 55 66 66 85 87 90 93 96 110 102 80 69 87 104 109 107 107 111 115 113 115 115 113 117 103 94 97 113 116 70 36 5 315 336 39 22 5 12 5 10 13 20 17
52 57 60 62 63 62 59 52 31 17 4 0 360 356 2 9 17 13 5 16 21 26 38 38 32 28 29 10 98 63 7 341 353 355 7 35 39 33 29 26 49 87 71 52 43 50 67 78 90 89 85 82 74 70 66 85 115 114 108 108 110 115 121 125 122 125 121 113 116 107 101 89 62 74 59 21 353 315 344 33 13 4 14 10 22 18 17 13
55 62 68 66 64 56 42 26 4 354 347 346 351 358 18 27 24 16 14 37 46 55 64 61 57 53 57 61 73 58 0 341 2 2 350 23 37 31 25 30 46 75 78 63 46 40 52 69 87 92 86 84 79 70 72 99 121 120 118 109 109 117 118 124 124 127 120 107 107 104 112 99 68 63 51 6 339 311 347 29 8 8 16 16 24 17 12 4
59 65 70 69 65 48 23 4 344 342 344 353 9 19 30 28 23 19 31 60 68 72 71 65 63 67 70 64 61 40 9 8 9 13 13 15 37 35 30 41 53 68 79 73 54 43 48 64 85 94 114 114 97 88 99 121 122 124 123 110 115 118 111 123 122 134 135 129 126 84 107 109 81 77 44 10 322 307 1 27 6 13 16 19 23 11 4 359
58 68 72 68 54 42 40 40 37 28 11 359 11 26 28 29 37 42 52 60 61 64 63 60 65 65 62 65 54 34 26 31 20 21 35 39 52 45 39 53 61 68 80 81 68 61 73 90 91 91 107 117 104 115 135 144 134 134 127 119 133 120 108 136 128 161 174 173 172 84 97 137 99 102 59 24 314 317 17 23 9 18 13 20 16 357 4 1
56 66 70 67 67 80 83 78 73 66 60 54 42 38 52 56 55 58 60 54 45 40 40 45 57 58 48 78 54 30 28 31 24 24 33 40 59 56 50 58 66 73 80 82 80 81 89 93 89 84 67 76 101 125 133 146 160 142 135 157 157 117 128 161 152 209 214 189 164 116 6 174 119 118 76 29 311 325 22 18 14 22 12 15 353 339 13 8
60 68 74 86 97 97 91 83 75 66 61 56 52 54 62 69 63 67 67 62 54 41 46 47 26 2 61 88 46 16 21 23 20 20 27 35 44 59 63 62 68 80 81 79 84 93 98 92 83 83 65 72 116 128 130 152 197 157 135 299 12 94 131 157 148 269 280 235 161 136 317 180 129 124 101 27 311 329 18 19 20 24 10 4 342 346 17 14
67 80 96 107 109 103 92 82 63 45 44 46 51 55 56 58 50 63 60 57 55 45 46 30 6 30 83 51 340 356 10 11 11 15 23 26 17 43 90 87 71 77 86 88 92 101 105 89 78 109 95 75 150 137 151 153 151 173 114 40 37 95 155 170 118 354 309 288 207 173 246 287 130 140 150 94 324 338 18 21 22 24 6 355 346 355 16 13
72 90 106 118 120 108 34 345 335 338 351 13 44 57 59 57 55 58 19 9 46 46 47 24 3 80 74 12 349 352 354 352 2 12 14 13 7 27 86 127 98 104 109 97 89 95 101 71 95 133 75 38 4 47 141 123 68 31 61 83 55 89 155 179 136 2 333 282 251 205 255 357 128 164 175 152 308 337 17 22 25 25 2 349 354 7 14 12
66 92 120 154 243 298 312 311 313 321 327 336 359 61 64 56 55 57 52 53 51 27 37 19 11 104 47 8 5 339 333 340 359 9 10 13 7 10 22 40 123 157 122 74 35 21 23 11 53 70 37 29 20 25 79 117 334 0 45 118 105 65 72 86 135 349 344 306 279 266 265 241 149 191 200 171 246 330 13 18 26 20 0 348 0 20 13 10
46 42 271 269 300 321 329 323 319 324 321 325 334 269 188 46 52 51 46 54 57 38 29 5 14 88 355 354 348 329 331 351 9 8 9 8 354 356 33 51 75 96 68 62 24 21 29 26 37 44 15 10 17 20 47 335 315 21 37 68 87 85 50 24 114 34 5 329 278 246 259 264 187 202 194 163 231 299 15 11 22 11 2 352 2 24 15 10
36 32 2 324 347 355 355 355 357 7 12 13 7 334 234 243 49 40 35 51 62 65 90 5 16 63 11 341 347 342 348 22 27 11 7 1 342 351 33 39 55 53 47 62 46 17 33 65 51 34 8 354 7 356 336 308 322 58 70 72 99 124 126 229 154 130 10 339 275 235 256 272 235 211 182 154 238 104 23 0 17 15 0 352 5 22 17 12
33 27 17 3 8 18 17 34 52 59 50 44 48 48 69 352 58 82 30 61 62 52 71 40 11 53 8 332 354 352 337 26 24 10 6 6 358 5 16 18 46 50 48 71 74 338 43 66 50 20 9 320 320 308 310 320 323 6 118 128 147 150 140 182 142 157 133 47 273 262 263 265 245 214 175 165 230 91 45 343 20 19 353 351 13 21 12 9
29 26 21 12 11 24 20 40 52 51 48 58 71 75 94 97 101 139 163 83 53 18 56 48 30 45 22 2 6 1 346 18 18 9 3 6 17 25 11 35 52 43 38 83 130 60 54 55 23 7 350 298 298 322 331 329 311 315 337 99 129 24 92 110 73 147 130 122 278 313 301 271 254 206 166 178 215 124 144 314 43 27 348 353 10 13 6 4
24 24 22 16 13 17 17 14 2 20 45 71 82 90 114 112 122 156 183 96 73 345 47 48 37 32 15 21 8 6 41 32 6 6 0 0 17 15 5 39 53 49 38 50 82 65 60 37 359 1 342 339 16 16 7 342 330 24 13 12 71 9 50 306 323 209 200 199 285 322 307 279 258 194 160 185 196 131 193 293 53 41 356 357 4 10 7 0
19 21 21 17 18 22 27 27 15 37 61 76 83 102 133 129 130 169 329 115 102 18 68 61 65 39 15 11 351 354 62 40 2 8 4 9 5 336 2 36 43 50 44 53 65 70 66 12 346 322 301 328 13 22 21 357 354 51 33 26 4 342 346 266 292 238 253 277 282 308 304 281 215 183 160 181 183 149 197 265 39 27 2 356 358 15 11 2
17 18 21 17 17 41 78 44 46 65 72 71 86 115 134 142 170 340 19 123 47 31 108 102 110 35 360 337 339 333 122 37 24 14 8 21 14 323 10 37 54 39 25 44 59 67 46 3 342 310 269 34 55 44 33 4 347 39 33 14 329 325 321 301 321 330 314 311 236 246 331 311 180 156 135 166 180 159 167 84 39 11 356 352 347 11 19 5
17 16 18 20 28 53 83 58 54 71 78 74 103 140 138 154 212 20 99 136 39 355 348 2 341 2 354 344 344 332 106 1 7 14 15 20 16 154 35 326 153 54 15 35 58 75 7 353 347 332 269 91 63 56 43 32 8 325 274 321 320 318 305 299 318 323 329 310 236 171 349 310 191 143 142 180 195 125 110 66 40 3 350 346 338 4 26 1
17 13 15 23 38 55 105 133 78 56 80 114 153 158 158 197 158 68 77 113 43 343 345 355 339 358 354 345 354 78 131 309 329 15 16 9 358 202 92 15 84 52 39 86 57 52 359 350 348 344 327 59 45 29 26 52 42 300 239 252 293 290 278 273 275 238 269 306 280 194 243 288 271 174 169 204 241 62 77 54 26 351 342 336 333 8 27 359
16 13 16 29 50 67 108 133 119 74 122 154 161 161 172 172 147 75 64 88 26 340 353 341 328 2 345 336 9 81 190 288 335 1 355 7 3 246 72 36 54 39 27 96 95 67 18 340 324 339 11 36 34 340 350 85 69 259 211 220 243 279 290 294 284 250 276 309 317 303 290 309 293 248 255 246 300 18 45 59 356 328 335 332 332 17 24 356
17 16 20 34 69 77 94 121 130 136 135 146 154 155 149 121 127 17 66 109 14 357 158 340 339 349 334 332 24 53 25 1 44 322 322 19 19 19 84 12 37 52 28 60 106 184 209 238 270 322 21 9 316 302 296 148 259 257 173 239 250 265 278 269 271 261 281 287 271 318 352 4 301 251 262 280 317 346 310 121 325 305 326 331 333 25 20 350
22 23 24 34 84 94 88 88 107 139 138 140 154 154 146 117 67 56 42 86 359 353 247 5 354 307 330 356 31 20 21 33 18 319 319 63 24 31 111 261 10 70 40 52 92 192 213 226 266 10 31 285 264 279 247 197 207 124 140 266 242 224 227 218 230 251 284 267 228 307 26 84 325 239 160 242 253 232 220 220 278 291 326 327 327 25 17 352
29 29 29 36 65 97 100 91 103 138 137 124 138 137 128 35 43 73 58 243 335 347 341 5 358 326 350 21 24 356 5 2 348 3 9 24 25 27 42 353 355 56 71 43 70 201 208 352 342 213 244 280 270 263 213 189 162 116 320 314 301 279 101 233 223 177 283 287 227 292 9 93 179 264 227 197 218 203 185 214 256 291 330 321 317 33 21 356
36 33 34 37 49 69 90 112 114 140 154 134 125 71 100 52 36 56 357 306 318 352 7 334 339 350 343 5 18 353 351 343 343 8 10 20 39 39 50 37 343 27 56 358 315 275 358 336 305 230 269 0 355 347 4 1 50 11 345 352 348 346 17 341 341 56 308 299 210 181 23 38 231 263 232 194 223 213 192 200 232 295 322 310 313 50 31 356
38 37 39 37 41 51 66 99 108 139 155 132 74 354 70 69 47 37 333 352 320 295 273 236 301 317 312 343 14 350 326 302 339 351 357 45 59 58 69 47 14 27 25 339 343 354 337 302 313 356 313 359 22 39 360 332 354 351 346 4 359 11 12 343 344 333 308 306 294 304 7 275 272 282 206 206 216 203 194 201 215 269 307 301 306 79 33 353
36 35 38 38 38 38 39 66 96 125 126 106 37 45 57 66 81 164 15 29 62 263 247 251 299 300 340 51 25 351 350 280 346 357 353 33 48 23 34 27 20 20 308 347 8 342 6 317 333 9 307 333 38 86 168 275 315 306 294 345 20 56 17 326 338 327 302 302 309 316 1 284 295 275 204 203 193 187 196 202 210 255 313 298 298 81 28 351
25 29 31 31 30 27 22 32 91 119 114 44 49 57 58 73 75 28 35 340 339 319 305 322 295 292 50 71 41 35 55 346 352 16 14 28 40 11 4 5 9 13 344 5 5 314 52 221 299 3 323 5 66 136 169 130 307 279 277 5 353 173 128 290 269 256 268 297 308 312 230 272 293 206 189 172 173 215 213 195 220 332 331 302 310 76 24 347
17 24 25 20 17 17 18 25 76 113 188 42 67 61 54 106 37 12 21 259 300 323 321 329 330 10 38 35 8 17 46 250 325 355 40 45 47 33 30 356 355 17 37 29 357 348 333 264 222 88 356 46 90 137 161 126 306 301 346 2 272 168 127 138 276 254 249 285 308 321 297 298 333 286 221 184 209 259 245 156 303 330 324 303 328 84 19 349
44 32 24 13 8 10 14 38 73 83 332 60 76 79 14 116 281 317 5 355 140 261 314 346 359 26 25 12 9 354 345 307 321 340 39 49 47 19 9 14 354 16 70 132 42 40 307 284 245 167 14 6 62 20 250 193 153 55 339 297 253 80 101 129 267 289 305 290 293 314 307 306 317 293 266 253 285 306 330 338 324 334 312 298 92 93 32 0
52 78 26 9 6 8 14 33 28 348 64 66 79 100 10 37 243 344 3 311 180 193 350 35 24 52 38 21 357 329 336 355 342 357 38 24 30 342 330 26 52 38 154 176 155 207 173 307 285 320 47 318 46 20 309 233 159 129 285 258 89 62 20 283 283 286 314 315 300 307 312 305 275 256 301 314 310 319 325 314 329 329 306 310 73 93 41 12
37 143 21 6 7 19 25 31 6 4 67 72 86 115 43 92 120 54 8 302 193 132 32 46 169 71 63 43 329 304 346 11 339 355 43 18 1 350 313 247 302 30 354 343 37 262 156 95 295 325 35 66 97 51 327 255 250 301 327 26 80 125 207 265 295 240 282 311 308 316 321 303 233 221 289 303 306 316 309 301 318 305 306 333 80 99 51 36
15 118 29 2 5 19 28 41 43 34 64 71 81 114 37 116 127 128 154 287 250 157 64 40 68 69 79 50 351 277 318 344 347 3 17 356 342 357 45 83 303 331 344 359 39 300 315 141 267 320 21 30 198 196 239 150 110 356 359 34 20 355 169 207 247 213 215 290 301 319 311 290 254 203 249 281 295 296 278 280 286 289 308 4 98 110 77 74
355 88 352 355 358 348 15 44 47 33 75 79 70 92 26 155 144 141 152 169 285 219 156 121 80 82 100 30 223 219 290 336 8 20 353 10 40 359 16 120 312 312 324 4 59 350 345 303 292 305 309 284 202 142 356 14 115 91 56 125 101 32 45 345 291 273 97 216 250 284 289 285 269 194 235 271 281 276 270 260 249 276 306 40 106 114 100 100
27 78 333 349 358 8 33 55 39 16 79 79 46 95 54 108 153 140 173 177 253 254 246 76 66 63 74 50 191 204 315 345 358 14 332 6 54 93 193 217 279 286 327 72 98 57 16 297 296 283 271 279 161 187 339 328 42 74 151 141 111 124 166 227 282 300 327 260 245 243 261 273 247 198 229 252 244 256 257 230 239 279 324 66 110 112 108 121
38 88 341 353 354 39 63 66 41 26 67 106 297 76 41 33 125 149 213 205 264 271 351 54 48 50 62 246 218 229 340 5 298 247 203 314 344 141 168 251 258 246 28 77 102 51 11 177 256 275 274 358 286 250 286 3 25 25 243 191 137 146 168 199 255 0 328 268 256 259 260 266 248 206 228 248 244 257 255 248 280 321 342 63 118 115 117 144
44 199 328 6 10 85 94 82 121 80 80 154 122 73 21 2 39 56 156 53 353 303 21 75 82 77 99 286 285 225 195 65 217 201 184 287 260 165 208 311 344 27 46 62 41 349 343 164 242 301 318 336 337 329 331 353 12 243 228 146 125 120 108 89 195 91 324 251 226 226 266 272 280 290 312 322 320 320 313 313 347 340 328 37 124 121 129 180
30 189 265 17 33 62 101 117 131 120 123 128 97 80 161 59 42 14 333 22 23 325 24 80 347 355 24 301 312 237 237 8 283 148 32 299 248 137 171 290 359 39 62 55 16 325 267 263 279 337 347 325 311 301 302 319 302 257 168 131 133 139 141 152 264 150 242 252 227 223 261 279 297 310 321 325 326 329 327 333 353 327 318 69 129 124 128 247
49 38 315 359 31 52 72 55 85 108 139 131 96 34 42 74 121 205 314 353 16 325 329 126 291 321 326 267 245 223 210 51 48 43 267 263 275 103 142 161 51 57 62 46 30 49 264 271 252 221 221 239 256 263 279 332 300 277 242 189 180 171 166 143 87 210 215 266 279 250 250 282 299 307 315 319 323 324 321 327 329 313 322 104 136 125 129 267
54 59 347 337 8 38 49 32 49 90 143 135 109 126 93 79 110 168 339 341 51 333 313 30 355 259 276 287 276 237 191 104 71 41 279 266 339 64 131 145 105 95 83 73 156 132 355 272 258 239 241 240 251 267 282 298 270 264 266 234 183 167 164 155 194 230 191 36 281 257 265 296 296 301 308 311 315 316 317 327 325 318 344 107 126 99 60 317
51 138 251 349 23 31 38 10 15 56 75 83 106 145 125 118 159 210 51 42 4 232 191 41 262 239 237 338 349 3 284 163 93 282 280 263 300 15 151 155 107 124 119 133 189 133 44 275 275 263 264 264 263 267 270 264 255 255 258 251 209 179 175 188 225 239 187 212 258 274 305 295 286 294 299 300 307 316 320 325 329 334 4 93 103 61 337 335
65 96 302 18 101 102 262 295 342 36 58 73 103 153 152 153 176 229 108 103 273 222 166 113 228 206 158 98 88 26 310 337 272 267 227 181 243 237 238 320 97 161 193 177 186 143 131 248 258 233 283 285 279 269 254 233 247 260 255 250 232 207 199 209 236 244 223 243 262 280 290 283 277 282 284 288 303 316 320 327 338 340 356 73 87 33 307 343
58 96 347 47 87 89 247 294 351 27 34 45 97 176 192 176 179 198 179 160 184 177 171 187 169 136 106 89 120 227 240 152 202 232 198 174 245 222 199 281 134 180 231 197 165 318 284 257 308 73 302 296 291 293 255 220 234 261 266 259 236 226 224 221 236 245 237 253 262 265 273 277 273 267 272 289 309 319 324 334 342 335 351 68 79 330 311 348
30 268 313 68 70 10 339 339 13 37 6 334 129 170 228 202 170 156 140 87 119 159 185 171 140 121 85 0 254 241 14 93 170 217 185 167 230 199 174 289 89 146 192 183 119 330 146 292 335 30 321 290 275 290 276 255 245 260 272 271 245 228 227 215 218 212 200 236 265 268 268 274 276 278 291 304 315 321 325 333 333 326 0 78 89 302 325 352
17 315 316 78 107 329 328 329 354 85 59 308 148 131 172 131 68 91 95 17 78 81 33 20 95 131 123 264 256 244 28 13 8 344 302 261 271 194 134 91 87 133 156 147 115 38 95 324 324 15 306 278 282 299 292 302 317 280 265 253 223 212 224 232 233 217 206 220 261 266 262 272 290 305 309 312 318 322 326 330 322 322 14 86 89 6 7 6